| time (UTC) | temp F | wind direction | speed knots | gust knots | rain 1hr in | rain 24hr in | rain mn in | humidity % | barometer mb |
| 20260506130110 | 77 | 110 | 0.0 | 0.0 | 0.00 | 0.00 | 0.00 | 95 | 1013.7 |
| 20260506125609 | 77 | 121 | 0.0 | 0.0 | 0.00 | 0.00 | 0.00 | 95 | 1013.5 |
| 20260506125106 | 77 | 120 | 0.0 | 0.0 | 0.00 | 0.00 | 0.00 | 95 | 1013.5 |
| 20260506124603 | 76 | 121 | 0.0 | 0.0 | 0.00 | 0.00 | 0.00 | 95 | 1013.7 |
| 20260506124101 | 76 | 121 | 0.0 | 0.0 | 0.00 | 0.00 | 0.00 | 95 | 1013.4 |
| 20260506123559 | 76 | 121 | 0.0 | 0.0 | 0.00 | 0.00 | 0.00 | 95 | 1013.2 |
| 20260506123057 | 76 | 121 | 0.0 | 0.0 | 0.00 | 0.00 | 0.00 | 95 | 1013.4 |
| 20260506122553 | 76 | 121 | 0.0 | 0.0 | 0.00 | 0.00 | 0.00 | 95 | 1013.5 |
| 20260506122051 | 76 | 121 | 0.0 | 0.0 | 0.00 | 0.00 | 0.00 | 95 | 1013.4 |
| 20260506121549 | 76 | 121 | 0.0 | 0.0 | 0.00 | 0.00 | 0.00 | 95 | 1013.3 |
| 20260506121044 | 76 | 121 | 0.0 | 0.0 | 0.00 | 0.00 | 0.00 | 95 | 1013.3 |
| 20260506120543 | 76 | 121 | 0.0 | 0.0 | 0.00 | 0.00 | 0.00 | 95 | 1013.0 |
| 20260506120040 | 76 | 122 | 0.0 | 0.0 | 0.00 | 0.00 | 0.00 | 95 | 1013.1 |
| 20260506115538 | 76 | 135 | 0.0 | 0.0 | 0.00 | 0.00 | 0.00 | 95 | 1012.9 |
| 20260506115036 | 76 | 121 | 0.0 | 0.0 | 0.00 | 0.00 | 0.00 | 95 | 1013.0 |
| 20260506114533 | 76 | 107 | 0.0 | 0.0 | 0.00 | 0.00 | 0.00 | 95 | 1012.9 |
| 20260506114032 | 76 | 179 | 0.0 | 0.0 | 0.00 | 0.00 | 0.00 | 95 | 1012.7 |
| 20260506113529 | 76 | 245 | 0.9 | 1.7 | 0.00 | 0.00 | 0.00 | 95 | 1012.3 |
| 20260506113026 | 76 | 158 | 1.7 | 4.3 | 0.00 | 0.00 | 0.00 | 95 | 1012.3 |
| 20260506112522 | 76 | 124 | 0.0 | 0.0 | 0.00 | 0.00 | 0.00 | 95 | 1012.4 |
| 20260506112020 | 76 | 127 | 0.0 | 0.0 | 0.00 | 0.00 | 0.00 | 95 | 1012.3 |
| 20260506111518 | 76 | 130 | 0.0 | 0.0 | 0.00 | 0.00 | 0.00 | 95 | 1012.4 |
| 20260506111015 | 76 | 127 | 0.0 | 0.0 | 0.00 | 0.00 | 0.00 | 95 | 1012.3 |
| 20260506110513 | 76 | 124 | 0.0 | 0.0 | 0.00 | 0.00 | 0.00 | 95 | 1012.2 |
| 20260506110010 | 76 | 133 | 0.0 | 0.0 | 0.00 | 0.00 | 0.00 | 95 | 1012.4 |
| 20260506105505 | 76 | 122 | 0.0 | 0.0 | 0.00 | 0.00 | 0.00 | 95 | 1012.4 |
| 20260506105003 | 76 | 123 | 0.0 | 0.0 | 0.00 | 0.00 | 0.00 | 95 | 1012.5 |
| 20260506104501 | 76 | 113 | 0.0 | 0.0 | 0.00 | 0.00 | 0.00 | 95 | 1012.7 |
| 20260506103959 | 76 | 184 | 0.0 | 0.0 | 0.00 | 0.00 | 0.00 | 95 | 1012.3 |
| 20260506103455 | 76 | 276 | 0.0 | 0.0 | 0.00 | 0.00 | 0.00 | 95 | 1012.6 |
| 20260506102952 | 76 | 155 | 0.0 | 0.0 | 0.00 | 0.00 | 0.00 | 95 | 1012.2 |
| 20260506102450 | 76 | 130 | 0.0 | 0.0 | 0.00 | 0.00 | 0.00 | 95 | 1012.6 |
| 20260506101947 | 76 | 151 | 0.0 | 0.0 | 0.00 | 0.00 | 0.00 | 95 | 1012.3 |
| 20260506101444 | 76 | 141 | 0.0 | 0.0 | 0.00 | 0.00 | 0.00 | 95 | 1012.2 |
| 20260506100941 | 76 | 181 | 0.0 | 0.0 | 0.00 | 0.00 | 0.00 | 95 | 1012.1 |
| 20260506100439 | 76 | 154 | 0.9 | 1.7 | 0.00 | 0.00 | 0.00 | 95 | 1012.3 |
| 20260506095937 | 76 | 118 | 0.0 | 0.0 | 0.00 | 0.00 | 0.00 | 94 | 1012.2 |
| 20260506095436 | 76 | 162 | 1.7 | 1.7 | 0.00 | 0.00 | 0.00 | 94 | 1012.1 |
| 20260506094931 | 76 | 193 | 0.9 | 1.7 | 0.00 | 0.00 | 0.00 | 94 | 1011.8 |
| 20260506094430 | 76 | 98 | 0.0 | 0.0 | 0.00 | 0.00 | 0.00 | 94 | 1012.0 |
| 20260506093927 | 76 | 121 | 0.0 | 0.0 | 0.00 | 0.00 | 0.00 | 94 | 1012.1 |
| 20260506093425 | 76 | 116 | 0.0 | 0.0 | 0.00 | 0.00 | 0.00 | 94 | 1012.1 |
| 20260506092923 | 76 | 123 | 0.0 | 0.0 | 0.00 | 0.00 | 0.00 | 94 | 1012.2 |
| 20260506092421 | 76 | 122 | 0.0 | 0.0 | 0.00 | 0.00 | 0.00 | 94 | 1012.1 |
| 20260506091917 | 76 | 117 | 0.0 | 0.0 | 0.00 | 0.00 | 0.00 | 94 | 1012.0 |
| 20260506091415 | 77 | 116 | 0.0 | 0.0 | 0.00 | 0.00 | 0.00 | 94 | 1012.2 |
| 20260506090912 | 77 | 114 | 0.0 | 0.9 | 0.00 | 0.00 | 0.00 | 94 | 1012.4 |
| 20260506090409 | 77 | 122 | 0.0 | 0.9 | 0.00 | 0.00 | 0.00 | 94 | 1012.2 |
| 20260506085906 | 77 | 126 | 0.0 | 0.0 | 0.00 | 0.00 | 0.00 | 94 | 1012.3 |
| 20260506085403 | 77 | 122 | 0.0 | 0.9 | 0.00 | 0.00 | 0.00 | 94 | 1012.3 |
| 20260506084859 | 77 | 164 | 0.9 | 0.9 | 0.00 | 0.00 | 0.00 | 93 | 1012.5 |
| 20260506084355 | 77 | 119 | 0.0 | 0.9 | 0.00 | 0.00 | 0.00 | 93 | 1012.7 |
| 20260506083852 | 77 | 131 | 0.0 | 0.9 | 0.00 | 0.00 | 0.00 | 93 | 1012.3 |
| 20260506083350 | 77 | 122 | 0.0 | 0.0 | 0.00 | 0.00 | 0.00 | 93 | 1012.6 |
| 20260506082847 | 77 | 114 | 0.0 | 0.9 | 0.00 | 0.00 | 0.00 | 93 | 1012.8 |
| 20260506082344 | 77 | 147 | 1.7 | 1.7 | 0.00 | 0.00 | 0.00 | 93 | 1012.3 |
| 20260506081839 | 77 | 260 | 1.7 | 2.6 | 0.00 | 0.00 | 0.00 | 93 | 1012.9 |
| 20260506081338 | 77 | 177 | 1.7 | 1.7 | 0.00 | 0.00 | 0.00 | 93 | 1012.7 |
| 20260506080835 | 77 | 122 | 0.0 | 0.9 | 0.00 | 0.00 | 0.00 | 93 | 1012.8 |
| 20260506080331 | 77 | 243 | 4.3 | 5.2 | 0.00 | 0.00 | 0.00 | 93 | 1012.6 |
| 20260506073316 | 77 | 195 | 2.6 | 2.6 | 0.00 | 0.00 | 0.00 | 92 | 1013.1 |
| 20260506072812 | 77 | 130 | 0.0 | 0.0 | 0.00 | 0.00 | 0.00 | 92 | 1013.4 |
| 20260506072310 | 77 | 135 | 0.9 | 0.9 | 0.00 | 0.00 | 0.00 | 92 | 1013.0 |
| 20260506071807 | 77 | 148 | 3.5 | 5.2 | 0.00 | 0.00 | 0.00 | 92 | 1013.4 |
| 20260506071306 | 77 | 203 | 2.6 | 2.6 | 0.00 | 0.00 | 0.00 | 92 | 1013.2 |
| 20260506070802 | 77 | 214 | 3.5 | 4.3 | 0.00 | 0.00 | 0.00 | 92 | 1013.5 |
| 20260506070259 | 77 | 90 | 1.7 | 2.6 | 0.00 | 0.00 | 0.00 | 92 | 1013.5 |
| 20260506062236 | 77 | 249 | 2.6 | 4.3 | 0.00 | 0.00 | 0.00 | 91 | 1013.2 |
| 20260506061732 | 77 | 254 | 4.3 | 5.2 | 0.00 | 0.00 | 0.00 | 91 | 1013.3 |
| 20260506061230 | 77 | 139 | 3.5 | 5.2 | 0.00 | 0.00 | 0.00 | 91 | 1013.0 |
| 20260506060728 | 77 | 83 | 1.7 | 2.6 | 0.00 | 0.00 | 0.00 | 91 | 1013.1 |
| 20260506060225 | 77 | 245 | 2.6 | 2.6 | 0.00 | 0.00 | 0.00 | 91 | 1013.2 |
| 20260506051157 | 77 | 281 | 1.7 | 2.6 | 0.00 | 0.00 | 0.00 | 91 | 1013.5 |
| 20260506050655 | 77 | 134 | 0.0 | 0.9 | 0.00 | 0.00 | 0.00 | 91 | 1013.6 |
| 20260506050152 | 77 | 120 | 0.9 | 0.9 | 0.00 | 0.00 | 0.00 | 91 | 1013.7 |
| 20260506044643 | 77 | 208 | 2.6 | 2.6 | 0.00 | 0.00 | 0.00 | 91 | 1013.4 |
| 20260506044140 | 77 | 193 | 3.5 | 6.1 | 0.00 | 0.00 | 0.00 | 91 | 1013.4 |
| 20260506043637 | 77 | 208 | 4.3 | 5.2 | 0.00 | 0.00 | 0.00 | 91 | 1013.2 |
| 20260506043135 | 77 | 165 | 0.9 | 2.6 | 0.00 | 0.00 | 0.00 | 91 | 1013.3 |
| 20260506042634 | 77 | 177 | 1.7 | 1.7 | 0.00 | 0.00 | 0.00 | 91 | 1013.3 |
| 20260506042131 | 77 | 122 | 1.7 | 2.6 | 0.00 | 0.00 | 0.00 | 91 | 1013.2 |
| 20260506041630 | 77 | 58 | 1.7 | 1.7 | 0.00 | 0.00 | 0.00 | 91 | 1013.2 |
| 20260506041126 | 77 | 202 | 3.5 | 4.3 | 0.00 | 0.00 | 0.00 | 91 | 1013.3 |
| 20260506040624 | 77 | 169 | 0.9 | 1.7 | 0.00 | 0.00 | 0.00 | 91 | 1013.1 |
| 20260506040120 | 77 | 244 | 1.7 | 4.3 | 0.00 | 0.00 | 0.00 | 91 | 1013.1 |
| 20260506035617 | 77 | 210 | 3.5 | 5.2 | 0.00 | 0.00 | 0.00 | 91 | 1013.1 |
| 20260506035114 | 77 | 149 | 1.7 | 1.7 | 0.00 | 0.00 | 0.00 | 91 | 1013.3 |
| 20260506034611 | 77 | 251 | 4.3 | 5.2 | 0.00 | 0.00 | 0.00 | 91 | 1013.3 |
| 20260506034108 | 77 | 159 | 1.7 | 1.7 | 0.00 | 0.00 | 0.00 | 91 | 1013.2 |
| 20260506033605 | 77 | 219 | 2.6 | 2.6 | 0.00 | 0.00 | 0.00 | 91 | 1013.4 |
| 20260506033102 | 77 | 173 | 2.6 | 2.6 | 0.00 | 0.00 | 0.00 | 91 | 1013.3 |
| 20260506032600 | 77 | 107 | 5.2 | 8.7 | 0.00 | 0.00 | 0.00 | 91 | 1013.0 |
| 20260506032056 | 77 | 191 | 1.7 | 2.6 | 0.00 | 0.00 | 0.00 | 91 | 1013.1 |
| 20260506031554 | 77 | 111 | 0.9 | 0.9 | 0.00 | 0.00 | 0.00 | 91 | 1013.0 |
| 20260506031050 | 77 | 220 | 2.6 | 4.3 | 0.00 | 0.00 | 0.00 | 91 | 1012.8 |
| 20260506030549 | 77 | 124 | 0.0 | 0.0 | 0.00 | 0.00 | 0.00 | 91 | 1013.0 |
| 20260506030046 | 77 | 137 | 0.0 | 0.0 | 0.00 | 0.00 | 0.00 | 91 | 1013.0 |
| 20260506025543 | 77 | 277 | 0.9 | 2.6 | 0.00 | 0.00 | 0.00 | 91 | 1012.8 |
| 20260506025038 | 77 | 268 | 3.5 | 6.1 | 0.00 | 0.00 | 0.00 | 91 | 1012.5 |
| 20260506024536 | 77 | 153 | 0.9 | 1.7 | 0.00 | 0.00 | 0.00 | 91 | 1012.7 |
| 20260506024032 | 77 | 208 | 1.7 | 2.6 | 0.00 | 0.00 | 0.00 | 91 | 1012.5 |
| 20260506023528 | 77 | 191 | 1.7 | 2.6 | 0.00 | 0.00 | 0.00 | 91 | 1012.4 |
| 20260506023026 | 77 | 155 | 0.0 | 0.9 | 0.00 | 0.00 | 0.00 | 91 | 1012.4 |
| 20260506022523 | 77 | 231 | 1.7 | 1.7 | 0.00 | 0.00 | 0.00 | 91 | 1012.6 |
| 20260506022021 | 77 | 169 | 0.9 | 0.9 | 0.00 | 0.00 | 0.00 | 91 | 1012.4 |
| 20260506021518 | 77 | 164 | 1.7 | 1.7 | 0.00 | 0.00 | 0.00 | 91 | 1012.3 |
| 20260506021015 | 77 | 197 | 0.0 | 0.0 | 0.00 | 0.00 | 0.00 | 91 | 1012.3 |
| 20260506020513 | 77 | 173 | 1.7 | 1.7 | 0.00 | 0.00 | 0.00 | 90 | 1012.3 |
| 20260506020010 | 77 | 252 | 5.2 | 6.1 | 0.00 | 0.00 | 0.00 | 90 | 1012.1 |
| 20260506015507 | 77 | 131 | 0.9 | 0.9 | 0.00 | 0.00 | 0.00 | 90 | 1012.2 |
| 20260506015004 | 78 | 140 | 0.9 | 0.9 | 0.00 | 0.00 | 0.00 | 90 | 1012.2 |
| 20260506014502 | 78 | 135 | 0.0 | 0.9 | 0.00 | 0.00 | 0.00 | 89 | 1012.1 |
| 20260506013957 | 78 | 218 | 2.6 | 4.3 | 0.00 | 0.00 | 0.00 | 89 | 1011.9 |
| 20260506013455 | 78 | 109 | 0.9 | 0.9 | 0.00 | 0.00 | 0.00 | 89 | 1011.9 |
| 20260506012951 | 78 | 264 | 2.6 | 5.2 | 0.00 | 0.00 | 0.00 | 89 | 1011.9 |
| 20260506012448 | 78 | 197 | 1.7 | 1.7 | 0.00 | 0.00 | 0.00 | 88 | 1011.7 |
| 20260506011945 | 78 | 85 | 0.9 | 0.9 | 0.00 | 0.00 | 0.00 | 88 | 1011.6 |
| 20260506011442 | 78 | 231 | 4.3 | 7.0 | 0.00 | 0.00 | 0.00 | 88 | 1011.7 |
| 20260506010939 | 78 | 179 | 1.7 | 1.7 | 0.00 | 0.00 | 0.00 | 88 | 1011.7 |
| 20260506010438 | 78 | 68 | 1.7 | 1.7 | 0.00 | 0.00 | 0.00 | 88 | 1011.5 |
| 20260506005933 | 78 | 232 | 4.3 | 7.0 | 0.00 | 0.00 | 0.00 | 88 | 1011.4 |
| 20260506005432 | 78 | 251 | 6.1 | 7.0 | 0.00 | 0.00 | 0.00 | 88 | 1011.6 |
| 20260506004926 | 78 | 138 | 3.5 | 4.3 | 0.00 | 0.00 | 0.00 | 87 | 1011.4 |
| 20260506004425 | 78 | 273 | 2.6 | 5.2 | 0.00 | 0.00 | 0.00 | 87 | 1011.4 |
| 20260506003920 | 78 | 216 | 2.6 | 2.6 | 0.00 | 0.00 | 0.00 | 87 | 1011.2 |
| 20260506003417 | 79 | 174 | 2.6 | 4.3 | 0.00 | 0.00 | 0.00 | 87 | 1011.3 |
| 20260506002914 | 79 | 179 | 1.7 | 1.7 | 0.00 | 0.00 | 0.00 | 87 | 1011.1 |
| 20260506002410 | 79 | 236 | 2.6 | 4.3 | 0.00 | 0.00 | 0.00 | 86 | 1011.3 |
| 20260506001905 | 79 | 182 | 2.6 | 2.6 | 0.00 | 0.00 | 0.00 | 86 | 1011.1 |
| 20260506001403 | 79 | 190 | 2.6 | 2.6 | 0.00 | 0.00 | 0.00 | 86 | 1011.3 |
| 20260506000900 | 79 | 153 | 1.7 | 2.6 | 0.00 | 0.00 | 0.00 | 86 | 1011.2 |
| 20260506000358 | 79 | 180 | 2.6 | 4.3 | 0.00 | 0.00 | 0.00 | 86 | 1011.4 |
| 20260505235854 | 79 | 239 | 2.6 | 4.3 | 0.00 | 0.00 | 0.00 | 85 | 1011.2 |
| 20260505235352 | 79 | 133 | 2.6 | 5.2 | 0.00 | 0.00 | 0.00 | 85 | 1011.5 |
| 20260505234848 | 79 | 258 | 7.0 | 8.7 | 0.00 | 0.00 | 0.00 | 85 | 1011.1 |
| 20260505234346 | 79 | 174 | 0.9 | 0.9 | 0.00 | 0.00 | 0.00 | 85 | 1011.3 |
| 20260505233843 | 79 | 235 | 5.2 | 7.0 | 0.00 | 0.00 | 0.00 | 85 | 1011.2 |
| 20260505233341 | 80 | 236 | 5.2 | 6.1 | 0.00 | 0.00 | 0.00 | 85 | 1011.1 |
| 20260505232838 | 80 | 117 | 1.7 | 2.6 | 0.00 | 0.00 | 0.00 | 84 | 1011.4 |
| 20260505232336 | 80 | 249 | 3.5 | 6.1 | 0.00 | 0.00 | 0.00 | 84 | 1011.6 |
| 20260505231832 | 80 | 240 | 4.3 | 5.2 | 0.00 | 0.00 | 0.00 | 83 | 1011.3 |
| 20260505231330 | 80 | 203 | 3.5 | 4.3 | 0.00 | 0.00 | 0.00 | 83 | 1011.3 |
| 20260505230828 | 80 | 244 | 2.6 | 4.3 | 0.00 | 0.00 | 0.00 | 82 | 1011.5 |
| 20260505230325 | 80 | 285 | 4.3 | 6.1 | 0.00 | 0.00 | 0.00 | 82 | 1011.3 |
| 20260505225821 | 80 | 241 | 4.3 | 6.1 | 0.00 | 0.00 | 0.00 | 82 | 1011.2 |
| 20260505225319 | 81 | 195 | 2.6 | 4.3 | 0.00 | 0.00 | 0.00 | 82 | 1011.2 |
| 20260505224813 | 80 | 215 | 6.1 | 7.8 | 0.00 | 0.00 | 0.00 | 82 | 1011.3 |
| 20260505224312 | 80 | 208 | 4.3 | 5.2 | 0.00 | 0.00 | 0.00 | 82 | 1011.2 |
| 20260505223808 | 80 | 226 | 6.1 | 7.8 | 0.00 | 0.00 | 0.00 | 81 | 1011.4 |
| 20260505223306 | 80 | 244 | 1.7 | 2.6 | 0.00 | 0.00 | 0.00 | 82 | 1011.4 |
| 20260505222801 | 80 | 271 | 4.3 | 7.0 | 0.00 | 0.00 | 0.00 | 82 | 1011.4 |
| 20260505222257 | 80 | 202 | 4.3 | 6.1 | 0.00 | 0.00 | 0.00 | 83 | 1011.4 |
| 20260505221755 | 80 | 215 | 4.3 | 5.2 | 0.00 | 0.00 | 0.00 | 83 | 1011.4 |
| 20260505221251 | 80 | 161 | 3.5 | 5.2 | 0.00 | 0.00 | 0.00 | 83 | 1011.6 |
| 20260505220748 | 80 | 251 | 4.3 | 6.1 | 0.00 | 0.00 | 0.00 | 83 | 1011.4 |
| 20260505220245 | 80 | 228 | 4.3 | 6.1 | 0.00 | 0.00 | 0.00 | 83 | 1011.6 |
| 20260505215744 | 80 | 216 | 3.5 | 5.2 | 0.00 | 0.00 | 0.00 | 83 | 1011.7 |
| 20260505215241 | 80 | 232 | 4.3 | 5.2 | 0.00 | 0.00 | 0.00 | 83 | 1011.7 |
| 20260505214739 | 80 | 209 | 6.1 | 7.0 | 0.00 | 0.00 | 0.00 | 83 | 1011.8 |
| 20260505214236 | 80 | 267 | 4.3 | 5.2 | 0.00 | 0.00 | 0.00 | 83 | 1011.7 |
| 20260505213733 | 80 | 229 | 3.5 | 5.2 | 0.00 | 0.00 | 0.00 | 83 | 1011.7 |
| 20260505213230 | 80 | 260 | 7.8 | 13.9 | 0.00 | 0.00 | 0.00 | 82 | 1011.8 |
| 20260505212726 | 81 | 138 | 4.3 | 7.8 | 0.00 | 0.00 | 0.00 | 82 | 1011.8 |
| 20260505212224 | 81 | 242 | 4.3 | 5.2 | 0.00 | 0.00 | 0.00 | 82 | 1012.0 |
| 20260505211721 | 81 | 192 | 0.9 | 1.7 | 0.00 | 0.00 | 0.00 | 83 | 1012.0 |
| 20260505211218 | 81 | 211 | 7.8 | 11.3 | 0.00 | 0.00 | 0.00 | 82 | 1012.0 |
| 20260505210714 | 81 | 210 | 5.2 | 7.8 | 0.00 | 0.00 | 0.00 | 82 | 1012.1 |
| 20260505210211 | 81 | 220 | 2.6 | 2.6 | 0.00 | 0.00 | 0.00 | 82 | 1011.9 |
| 20260505205709 | 81 | 223 | 6.1 | 9.6 | 0.00 | 0.00 | 0.00 | 82 | 1011.8 |
| 20260505205207 | 81 | 204 | 6.1 | 8.7 | 0.00 | 0.00 | 0.00 | 82 | 1012.3 |
| 20260505204703 | 81 | 195 | 6.1 | 9.6 | 0.00 | 0.00 | 0.00 | 82 | 1012.2 |
| 20260505204201 | 81 | 193 | 7.0 | 9.6 | 0.00 | 0.00 | 0.00 | 82 | 1012.6 |
| 20260505203658 | 81 | 257 | 6.1 | 7.0 | 0.00 | 0.00 | 0.00 | 82 | 1012.4 |
| 20260505203154 | 81 | 174 | 4.3 | 6.1 | 0.00 | 0.00 | 0.00 | 82 | 1012.3 |
| 20260505202650 | 81 | 266 | 4.3 | 5.2 | 0.00 | 0.00 | 0.00 | 82 | 1012.6 |
| 20260505202146 | 81 | 253 | 6.1 | 6.1 | 0.00 | 0.00 | 0.00 | 81 | 1012.6 |
| 20260505201643 | 81 | 273 | 6.1 | 6.1 | 0.00 | 0.00 | 0.00 | 82 | 1012.8 |
| 20260505201141 | 82 | 188 | 1.7 | 2.6 | 0.00 | 0.00 | 0.00 | 81 | 1012.8 |
| 20260505200639 | 82 | 253 | 3.5 | 4.3 | 0.00 | 0.00 | 0.00 | 81 | 1012.8 |
| 20260505200136 | 81 | 240 | 4.3 | 6.1 | 0.00 | 0.00 | 0.00 | 81 | 1012.9 |
| 20260505195632 | 81 | 249 | 6.1 | 8.7 | 0.00 | 0.00 | 0.00 | 82 | 1012.6 |
| 20260505195129 | 81 | 227 | 4.3 | 7.0 | 0.00 | 0.00 | 0.00 | 81 | 1012.8 |
| 20260505194626 | 81 | 163 | 4.3 | 6.1 | 0.00 | 0.00 | 0.00 | 82 | 1012.9 |
| 20260505194122 | 81 | 178 | 5.2 | 7.0 | 0.00 | 0.00 | 0.00 | 81 | 1013.0 |
| 20260505193619 | 81 | 234 | 4.3 | 7.8 | 0.00 | 0.00 | 0.00 | 82 | 1012.7 |
| 20260505193116 | 81 | 280 | 6.1 | 7.0 | 0.00 | 0.00 | 0.00 | 81 | 1012.7 |
| 20260505192615 | 81 | 259 | 2.6 | 4.3 | 0.00 | 0.00 | 0.00 | 82 | 1012.7 |
| 20260505192112 | 81 | 215 | 6.1 | 7.8 | 0.00 | 0.00 | 0.00 | 82 | 1013.0 |
| 20260505191610 | 80 | 226 | 4.3 | 5.2 | 0.00 | 0.00 | 0.00 | 83 | 1013.0 |
| 20260505191108 | 80 | 246 | 2.6 | 5.2 | 0.00 | 0.00 | 0.00 | 84 | 1013.1 |
| 20260505190603 | 80 | 218 | 2.6 | 2.6 | 0.00 | 0.00 | 0.00 | 84 | 1013.0 |
| 20260505190058 | 80 | 227 | 5.2 | 6.1 | 0.00 | 0.00 | 0.00 | 85 | 1013.0 |
| 20260505185555 | 79 | 236 | 3.5 | 5.2 | 0.00 | 0.00 | 0.00 | 85 | 1012.9 |
| 20260505185051 | 79 | 181 | 2.6 | 4.3 | 0.00 | 0.00 | 0.00 | 85 | 1013.2 |
| 20260505184548 | 80 | 210 | 4.3 | 5.2 | 0.00 | 0.00 | 0.00 | 84 | 1013.1 |
| 20260505184045 | 80 | 227 | 3.5 | 5.2 | 0.00 | 0.00 | 0.00 | 84 | 1013.4 |
| 20260505183542 | 80 | 215 | 4.3 | 5.2 | 0.00 | 0.00 | 0.00 | 84 | 1013.2 |
| 20260505183039 | 80 | 229 | 6.1 | 7.0 | 0.00 | 0.00 | 0.00 | 84 | 1013.4 |
| 20260505182535 | 80 | 175 | 2.6 | 5.2 | 0.00 | 0.00 | 0.00 | 84 | 1013.4 |
| 20260505182032 | 79 | 310 | 4.3 | 5.2 | 0.00 | 0.00 | 0.00 | 84 | 1013.5 |
| 20260505181529 | 79 | 240 | 5.2 | 6.1 | 0.00 | 0.00 | 0.00 | 84 | 1013.5 |
| 20260505181027 | 79 | 282 | 7.8 | 11.3 | 0.00 | 0.00 | 0.00 | 84 | 1013.3 |
| 20260505180522 | 79 | 266 | 2.6 | 5.2 | 0.00 | 0.00 | 0.00 | 84 | 1013.5 |
| 20260505180021 | 79 | 248 | 2.6 | 2.6 | 0.00 | 0.00 | 0.00 | 84 | 1013.5 |
| 20260505175520 | 79 | 204 | 2.6 | 4.3 | 0.00 | 0.00 | 0.00 | 85 | 1013.5 |
| 20260505175018 | 79 | 159 | 2.6 | 4.3 | 0.00 | 0.00 | 0.00 | 85 | 1013.4 |
| 20260505174515 | 78 | 198 | 4.3 | 6.1 | 0.00 | 0.00 | 0.00 | 86 | 1013.5 |
| 20260505174010 | 78 | 243 | 6.1 | 7.0 | 0.00 | 0.00 | 0.00 | 86 | 1013.5 |
| 20260505173507 | 78 | 292 | 3.5 | 4.3 | 0.00 | 0.00 | 0.00 | 85 | 1013.4 |
| 20260505173004 | 78 | 245 | 2.6 | 5.2 | 0.00 | 0.00 | 0.00 | 85 | 1013.5 |
| 20260505172502 | 78 | 238 | 2.6 | 4.3 | 0.00 | 0.00 | 0.00 | 86 | 1013.8 |
| 20260505171957 | 78 | 243 | 3.5 | 4.3 | 0.00 | 0.00 | 0.00 | 87 | 1013.7 |
| 20260505171453 | 78 | 293 | 5.2 | 7.0 | 0.00 | 0.00 | 0.00 | 87 | 1013.9 |
| 20260505170950 | 78 | 242 | 3.5 | 4.3 | 0.00 | 0.00 | 0.00 | 86 | 1013.7 |
| 20260505170447 | 78 | 176 | 2.6 | 2.6 | 0.00 | 0.00 | 0.00 | 85 | 1013.9 |
| 20260505165942 | 78 | 242 | 7.0 | 9.6 | 0.00 | 0.00 | 0.00 | 85 | 1013.8 |
| 20260505165438 | 78 | 184 | 2.6 | 4.3 | 0.00 | 0.00 | 0.00 | 85 | 1013.9 |
| 20260505164934 | 78 | 169 | 2.6 | 2.6 | 0.00 | 0.00 | 0.00 | 85 | 1013.6 |
| 20260505164431 | 79 | 238 | 3.5 | 6.1 | 0.00 | 0.00 | 0.00 | 84 | 1013.6 |
| 20260505163929 | 79 | 220 | 5.2 | 7.0 | 0.00 | 0.00 | 0.00 | 84 | 1013.7 |
| 20260505163427 | 79 | 220 | 4.3 | 5.2 | 0.00 | 0.00 | 0.00 | 84 | 1013.8 |
| 20260505162926 | 78 | 256 | 3.5 | 4.3 | 0.00 | 0.00 | 0.00 | 84 | 1013.8 |
| 20260505162421 | 79 | 261 | 3.5 | 5.2 | 0.00 | 0.00 | 0.00 | 84 | 1013.6 |
| 20260505161918 | 79 | 206 | 2.6 | 2.6 | 0.00 | 0.00 | 0.00 | 84 | 1013.7 |
| 20260505161415 | 78 | 69 | 3.5 | 5.2 | 0.00 | 0.00 | 0.00 | 84 | 1013.7 |
| 20260505160913 | 78 | 234 | 3.5 | 4.3 | 0.00 | 0.00 | 0.00 | 84 | 1013.4 |
| 20260505160411 | 78 | 232 | 5.2 | 6.1 | 0.00 | 0.00 | 0.00 | 84 | 1013.5 |
| 20260505153349 | 78 | 246 | 7.0 | 7.8 | 0.00 | 0.00 | 0.00 | 84 | 1013.3 |
| 20260505152846 | 78 | 264 | 3.5 | 7.0 | 0.00 | 0.00 | 0.00 | 84 | 1013.3 |
| 20260505152338 | 78 | 219 | 4.3 | 7.0 | 0.00 | 0.00 | 0.00 | 85 | 1013.4 |
| 20260505151837 | 77 | 228 | 6.1 | 7.8 | 0.00 | 0.00 | 0.00 | 86 | 1013.2 |
| 20260505151335 | 77 | 256 | 7.0 | 7.8 | 0.00 | 0.00 | 0.00 | 88 | 1013.3 |
| 20260505150832 | 77 | 125 | 1.7 | 2.6 | 0.00 | 0.00 | 0.00 | 90 | 1013.1 |
| 20260505150329 | 76 | 207 | 3.5 | 5.2 | 0.00 | 0.00 | 0.00 | 90 | 1013.2 |
| 20260505140253 | 76 | 291 | 4.3 | 6.1 | 0.00 | 0.00 | 0.00 | 87 | 1013.5 |